Weather in Zarechny

Russia / Ryazan Oblast     53°43′44″N   39°35′44″E
temp.,
°C
wind,
m/s
gust,
m/s
humid.,
%
clouds,
%
prec.,
mm/h
press.,
hPa
HPBL,
m
12 may, wed
wed1200:00+7sse22871 0.0 102614
03:00+6e22850 0.0 102611
06:00+8ne23845 0.0 102691
09:00+9ne3593100 0.8 1025255
12:00+9nw4796100 5.6 1022358
15:00+9wsw2699100 13.6 1019280
18:00+9ssw149999 8.8 1017216
21:00+7sse34966 8.9 101988
13 may, thu
thu1300:00+6ese349587 0.0 102051
03:00+6e3695100 0.0 1020102
06:00+7e399599 0.0 1020226
09:00+12ese5980100 0.0 1018418
12:00+15ese467134 0.0 1017689
15:00+15wsw767390 0.2 1017693
18:00+14ene228313 0.0 1016162
21:00+12sse019170 0.4 101610
14 may, fri
fri1400:00+12ese229181 0.2 101629
03:00+12sse2291100 0.2 101719
06:00+12ese2492100 0.2 101793
09:00+17se577967 0.3 1017421
12:00+21se6866100 0.0 10161071
15:00+23se6106719 0.0 10141556
18:00+21sse6127375 1.4 1013416
21:00+18sse4118138 2.0 1012178
15 may, sat
sat1500:00+16ese51191100 0.0 1011172
03:00+15wsw2296100 1.8 101239
06:00+16ne469691 1.6 1011165
09:00+18ese3692100 4.4 1010259
12:00+18sse3987100 1.5 1011410
15:00+21ssw710710 1.5 10121184
18:00+20ssw487773 0.6 1011521
21:00+16sw2289100 0.9 101218
16 may, sun
sun1600:00+14sw22905 0.1 101228
03:00+13sw339216 0.1 101338
06:00+14ssw3692100 0.0 1014163
09:00+18sw5774100 0.0 1014588
12:00+20sw56630 0.0 10141243
15:00+21wsw45587 0.0 10141424
18:00+21w236920 0.0 1014240
21:00+15n227998 0.0 101516